Terminal Aerodrome Forecast
Issued by NWS

Home | Current Version | Previous Version | Text Only | Print | Product List | Glossary On
Versions: 1 2 3 4 5 6 7 8 9 10 11 12 13 14 15 16 17 18 19 20 21 22 23 24 25 26 27 28 29 30 31 32 33 34 35
000
FTAK31 PANC 291303 AAB
TAFAAQ
TAF AMD
PAAQ 291303Z 2913/3012 01004KT P6SM VCFG FEW002
     FM291500 VRB05KT P6SM SCT030
     FM300000 VRB05KT P6SM VCTS SCT045CB BKN100
     FM300700 03007KT P6SM SCT120=

USA.gov is the U.S. government's official web portal to all federal, state and local government web resources and services.